St. Cloud, MN

1:13 PM CST on November 21, 2019 (GMT -0600)
Saint Cloud Regional

Weather History for KSTC - June, 2019

Change the Weather History Date:

Saturday, June 1, 2019

  Actual Average Record
Temperature  
Mean Temperature 60 °F 61 °F  
Max Temperature 72 °F 73 °F 91 °F (1934)
Min Temperature 47 °F 49 °F 32 °F (1993)
Degree Days  
Heating Degree Days 6 5  
Month to date heating degree days 5 5  
Since 1 June heating degree days 5 5  
Since 1 July heating degree days 9212 8459  
Cooling Degree Days 0 1  
Month to date cooling degree days 0 1  
Year to date cooling degree days 7 26  
Since 1 June cooling degree days 0 1  
Growing Degree Days 10 (Base 50)    
Moisture  
Dew Point 43 °F    
Average Humidity 56    
Maximum Humidity 83    
Minimum Humidity 27    
Precipitation  
Precipitation 0.03 in 0.12 in 1.20 in (1897)
Month to date precipitation 0.03 0.12  
Year to date precipitation 13.78 8.43  
Snow  
Snow 0.00 in 0.00 in 0.00 in ()
Month to date snowfall 0.0 0.0  
Since 1 June snowfall 0.0 0.0  
Since 1 July snowfall 68.9 45.7  
Snow Depth 0.00 in    
Sea Level Pressure  
Sea Level Pressure 29.89 in    
Wind  
Wind Speed 7 mph ()    
Max Wind Speed 18 mph    
Max Gust Speed 26 mph    
Visibility 10.0 miles    
Events Rain , Thunderstorm    
T = Trace of Precipitation, MM = Missing Value Source: Averaged Metar Reports

Daily Weather History Graph

Daily Weather History Graph

Search for Another Location

Airport or City:

Astronomy

Jun. 01, 2019 Rise Set
Actual Time 5:30 AM CDT 8:57 PM CDT
Civil Twilight 4:54 AM CDT 9:34 PM CDT
Nautical Twilight 4:05 AM CDT 10:23 PM CDT
Astronomical Twilight 3:03 AM CDT 11:26 PM CDT
Moon 4:45 AM CDT (6/1) 7:04 PM CDT (6/1)
Length of Visible Light 16h 40m
Length of Day
15h 26m
Waning Crescent, 4% of the Moon is Illuminated
Jun 1
Waning Crescent
Jun 3
New
Jun 10
First Quarter
Jun 17
Full
Jun 25
Last Quarter

Hourly Weather History & Observations

Time (CDT) Temp. Dew Point Humidity Pressure Visibility Wind Dir Wind Speed Gust Speed Precip Events Conditions
12:18 AM 59.0 °F 48.9 °F 69% 29.87 in 10.0 mi NNW 8.1 mph - 0.00 in Rain , Thunderstorm Light Rain
12:35 AM 57.9 °F 48.0 °F 70% 29.82 in 10.0 mi NNE 10.4 mph 18.4 mph 0.00 in   Mostly Cloudy
12:53 AM 57.0 °F 46.9 °F 69% 29.83 in 10.0 mi North 13.8 mph 25.3 mph 0.00 in   Scattered Clouds
1:53 AM 55.0 °F 46.0 °F 72% 29.78 in 10.0 mi East 9.2 mph - N/A   Partly Cloudy
2:53 AM 53.1 °F 46.0 °F 77% 29.87 in 10.0 mi North - - N/A   Scattered Clouds
3:53 AM 54.0 °F 46.9 °F 77% 29.87 in 10.0 mi North 6.9 mph - N/A   Overcast
4:53 AM 53.1 °F 48.0 °F 83% 29.83 in 10.0 mi North 6.9 mph - 0.03 in   Mostly Cloudy
5:53 AM 53.1 °F 45.0 °F 74% 29.83 in 10.0 mi NNE 4.6 mph - N/A   Clear
6:53 AM 53.1 °F 45.0 °F 74% 29.87 in 10.0 mi NW 4.6 mph - N/A   Clear
7:53 AM 54.0 °F 45.0 °F 72% 29.89 in 10.0 mi Calm Calm - N/A   Clear
8:53 AM 57.0 °F 44.1 °F 62% 29.90 in 10.0 mi Calm Calm - N/A   Clear
9:53 AM 60.1 °F 45.0 °F 57% 29.91 in 10.0 mi WNW 3.5 mph - N/A   Clear
10:53 AM 64.9 °F 48.9 °F 56% 29.91 in 10.0 mi North 6.9 mph - N/A   Clear
11:53 AM 66.9 °F 46.9 °F 49% 29.91 in 10.0 mi North 8.1 mph 18.4 mph N/A   Clear
12:53 PM 68.0 °F 44.1 °F 42% 29.91 in 10.0 mi NNW 11.5 mph 16.1 mph N/A   Clear
1:53 PM 70.0 °F 44.1 °F 39% 29.90 in 10.0 mi NW 11.5 mph 19.6 mph N/A   Partly Cloudy
2:53 PM 70.0 °F 37.9 °F 31% 29.90 in 10.0 mi NW 12.7 mph 24.2 mph N/A   Clear
3:53 PM 70.0 °F 36.0 °F 29% 29.90 in 10.0 mi NW 11.5 mph 20.7 mph N/A   Clear
4:53 PM 71.1 °F 36.0 °F 28% 29.89 in 10.0 mi NW 17.3 mph 21.9 mph N/A   Clear
5:53 PM 71.1 °F 35.1 °F 27% 29.89 in 10.0 mi North 11.5 mph - N/A   Clear
6:53 PM 68.0 °F 37.0 °F 32% 29.91 in 10.0 mi North 12.7 mph 25.3 mph N/A   Clear
7:53 PM 64.9 °F 34.0 °F 32% 29.93 in 10.0 mi North 9.2 mph - N/A   Clear
8:53 PM 61.0 °F 35.1 °F 38% 29.95 in 10.0 mi North 4.6 mph - N/A   Clear
9:53 PM 57.0 °F 37.9 °F 49% 29.97 in 10.0 mi North 3.5 mph - N/A   Clear
10:53 PM 52.0 °F 41.0 °F 66% 29.98 in 10.0 mi Calm Calm - N/A   Clear
11:53 PM 50.0 °F 42.1 °F 74% 29.98 in 10.0 mi Calm Calm - N/A   Clear